Weather in Durbe

Latvia     56°35′19″N   21°22′08″E
temp.,
°C
wind,
m/s
gust,
m/s
humid.,
%
clouds,
%
prec.,
mm/h
press.,
hPa
HPBL,
m
16 may, sun
sun1600:00+7ssw12934 0.0 100842
03:00+6s229594 0.0 100815
06:00+6se229175 0.0 100832
09:00+12se346757 0.0 1008325
12:00+17se346530 0.1 10071256
15:00+17ssw3562100 0.6 10071136
18:00+17sse4663100 0.1 1005742
21:00+14ese3982100 0.1 1004307
17 may, mon
mon1700:00+12ese41295100 0.2 1003389
03:00+13sse41095100 0.4 1002437
06:00+12s2799100 1.7 1003386
09:00+12ssw4695100 1.8 1004435
12:00+16sw56676 0.0 10051015
15:00+17sw34591 0.1 10061109
18:00+15wsw33637 0.0 1006506
21:00+12wnw22801 0.0 100621
18 may, tue
tue1800:00+8ne349099 0.0 100661
03:00+9ne2395100 0.0 100656
06:00+9ne2498100 0.0 100490
09:00+13nne2383100 0.0 1004324
12:00+17nne2366100 0.1 10041098
15:00+19n325331 0.2 10041697
18:00+17n4559100 0.0 1004503
21:00+12nnw3769100 0.0 1005224
19 may, wed
wed1900:00+10nnw2680100 0.1 1006173
03:00+9n3694100 0.8 1007192
06:00+9nw2694100 0.1 1008245
09:00+9wnw2496100 0.9 1009190
12:00+10nw2395100 2.1 1010295
15:00+13nw2379100 2.3 1010787
18:00+14wnw447075 0.1 1010845
21:00+10wnw2388100 0.1 101083
20 may, thu
thu2000:00+7nw1195100 0.0 101011
03:00+7wnw2293100 0.0 101023
06:00+7nw1185100 0.0 101014
09:00+12nw3570100 0.0 1010371
12:00+14nw4659100 0.0 1010715
15:00+14nw5755100 0.0 1011842
18:00+13wnw5759100 0.0 1011668
21:00+9w3981100 0.0 1011345